Akron, CO

2:06 AM MDT on July 22, 2017 (GMT -0600)
Akron-Washington County

Weather History for KAKO - May, 2013

Change the Weather History Date:

Tuesday, May 21, 2013

  Actual Average Record
Temperature  
Mean Temperature 55 °F 59 °F  
Max Temperature 68 °F 72 °F 90 °F (1964)
Min Temperature 42 °F 45 °F 32 °F (1974)
Degree Days  
Heating Degree Days 10    
Month to date heating degree days 221  
Cooling Degree Days 0    
Month to date cooling degree days 26  
Growing Degree Days 6 (Base 50)    
Moisture  
Dew Point 34 °F    
Average Humidity 48    
Maximum Humidity 76    
Minimum Humidity 20    
Precipitation  
Precipitation 0.00 in 0.11 in 1.38 in (1961)
Month to date precipitation 1.40 1.88  
Year to date precipitation 3.85 5.14  
Sea Level Pressure  
Sea Level Pressure 29.88 in    
Wind  
Wind Speed 22 mph (NNW)    
Max Wind Speed 33 mph    
Max Gust Speed 41 mph    
Visibility 10 miles    
Events      
T = Trace of Precipitation, MM = Missing Value Source: NWS Daily Summary

Daily Weather History Graph

Daily Weather History Graph

Search for Another Location

Airport or City:

Trip Planner

Search our weather history database for the weather conditions in past years. The results will help you decide how hot, cold, wet, or windy it might be!

Date:

Astronomy

May. 21, 2013 Rise Set
Actual Time 5:31 AM MDT 8:07 PM MDT
Civil Twilight 5:00 AM MDT 8:39 PM MDT
Nautical Twilight 4:21 AM MDT 9:18 PM MDT
Astronomical Twilight 3:37 AM MDT 10:02 PM MDT
Moon 4:23 PM MDT (5/21) 3:01 AM MDT (5/21)
Length of Visible Light 15h 38m
Length of Day
14h 35m
Waxing Gibbous, 84% of the Moon is Illuminated
May 21
Waxing Gibbous
May 24
Full
May 31
Last Quarter
Jun 8
New
Jun 16
First Quarter

Hourly Weather History & Observations

Time (MDT) Temp. Windchill Dew Point Humidity Pressure Visibility Wind Dir Wind Speed Gust Speed Precip Events Conditions
12:53 AM 46.0 °F 37.8 °F 37.0 °F 71% 29.92 in 10.0 mi NW 23.0 mph 28.8 mph N/A   Mostly Cloudy
1:53 AM 46.0 °F 38.0 °F 37.9 °F 73% 29.91 in 10.0 mi NW 21.9 mph - N/A   Overcast
2:53 AM 45.0 °F 36.0 °F 37.0 °F 74% 29.88 in 10.0 mi NW 25.3 mph - N/A   Clear
3:53 AM 46.0 °F 36.5 °F 37.9 °F 73% 29.89 in 10.0 mi NW 31.1 mph 38.0 mph N/A   Mostly Cloudy
4:53 AM 45.0 °F 36.4 °F 37.9 °F 76% 29.92 in 10.0 mi NW 23.0 mph - N/A   Clear
5:53 AM 44.1 °F 36.8 °F 37.9 °F 79% 29.94 in 10.0 mi WNW 16.1 mph - N/A   Clear
6:53 AM 46.9 °F - 39.0 °F 74% 29.95 in 10.0 mi NW 19.6 mph 28.8 mph N/A   Clear
7:53 AM 51.1 °F - 39.0 °F 63% 29.95 in 10.0 mi NW 24.2 mph 33.4 mph N/A   Clear
8:53 AM 54.0 °F - 37.9 °F 55% 29.94 in 10.0 mi NW 27.6 mph 36.8 mph N/A   Partly Cloudy
9:53 AM 57.0 °F - 35.1 °F 44% 29.93 in 10.0 mi NNW 24.2 mph 33.4 mph N/A   Partly Cloudy
10:53 AM 60.1 °F - 30.0 °F 32% 29.89 in 10.0 mi NW 27.6 mph 35.7 mph N/A   Clear
11:53 AM 63.0 °F - 28.9 °F 28% 29.86 in 10.0 mi NW 26.5 mph 38.0 mph N/A   Clear
12:53 PM 64.0 °F - 30.0 °F 28% 29.84 in 10.0 mi NNW 29.9 mph 38.0 mph N/A   Partly Cloudy
1:53 PM 66.0 °F - 27.0 °F 23% 29.81 in 10.0 mi NW 27.6 mph 38.0 mph N/A   Partly Cloudy
2:53 PM 66.9 °F - 25.0 °F 21% 29.79 in 10.0 mi NNW 27.6 mph 36.8 mph N/A   Clear
3:53 PM 68.0 °F - 28.0 °F 22% 29.79 in 10.0 mi NNW 28.8 mph 34.5 mph N/A   Clear
4:53 PM 66.9 °F - 28.9 °F 24% 29.79 in 10.0 mi North 23.0 mph 34.5 mph N/A   Clear
5:53 PM 64.0 °F - 32.0 °F 30% 29.81 in 10.0 mi North 21.9 mph 29.9 mph N/A   Clear
6:53 PM 61.0 °F - 33.1 °F 35% 29.82 in 10.0 mi North 18.4 mph 26.5 mph N/A   Clear
7:53 PM 55.0 °F - 35.1 °F 47% 29.86 in 10.0 mi NE 9.2 mph - N/A   Clear
8:53 PM 48.9 °F - 36.0 °F 61% 29.89 in 10.0 mi ESE 5.8 mph - N/A   Clear
9:53 PM 45.0 °F 41.8 °F 36.0 °F 71% 29.92 in 10.0 mi East 5.8 mph - N/A   Clear
10:53 PM 45.0 °F 41.8 °F 37.0 °F 74% 29.91 in 10.0 mi SE 5.8 mph - N/A   Clear
11:53 PM 45.0 °F 41.2 °F 37.9 °F 76% 29.92 in 10.0 mi SSW 6.9 mph - N/A   Clear